Air Resources Laboratory banner image
Air Resources Laboratory web site National Oceanic and Atmospheric Administration (NOAA)

wa zone


SCZ050-WAZ558-NCZ071-TXZ119-213-PAZ071-DCZ001-FLZ074-172-MI076-
NYZ176-178-MAZ016-IL014-TNZ027-NJZ106-GAZ044-MD014-151100-

...Gateway Observations for Charleston International...

CITY           SKY/WX    TMP DP  RH WIND       PRES   REMARKS
Chas Airport   PTCLDY    45  39  79 CALM      29.99F
Seattle        CLOUDY    39  32  76 CALM      30.19S
Charlotte      MOCLDY    37  26  64 N8        29.97F WCI  31
Dallas DFW     PTCLDY    40  27  59 NW9       30.22S WCI  34
Dallas Love    PTCLDY    38  29  70 N3        30.24S
Philladelphia  CLOUDY    25   7  46 CALM      30.13F
Wash National  CLOUDY    30  11  45 E7        30.12F WCI  23
Baltimore      MOCLDY    24  12  60 CALM      30.11F
Miami          PTCLDY    56  54  93 CALM      30.09R
Detroit        CLOUDY    20   9  62 SW7       29.97F WCI  11
Newark         MOCLDY    20   7  57 NW7       30.11S WCI  11
Laguardia      MOCLDY    23   8  52 NW8       30.09F WCI  14
J F K          MOCLDY    21   9  59 NW7       30.12R WCI  12
Boston Logan   MOCLDY    19   7  59 W7        30.06S WCI  10
Ft. Lauderdale CLEAR     56  52  86 CALM      30.07F
Chicago O'Hare CLOUDY    25  16  68 SW12      29.92F WCI  14
Chicago Midway FLURRIES  24  15  68 SW12      29.95F WCI  13
Houston Bush   CLOUDY    51  33  50 N14       30.17R
Houston Hobby  MOCLDY    51  35  54 N16       30.16R
Nashville      CLOUDY    33  20  58 N6        30.08F WCI  28
Atlanta        MOCLDY    39  33  79 NW6       29.99R WCI  35